Погода в Калач-Куртлаке

Россия / Ростовская область     48°59′52″N   42°25′33″E
темп.,
°C
ветер,
м/с
пор.,
м/с
влажн.,
%
обл.,
%
осадки,
мм/ч
давл.,
гПа
погр.,
м
22 апреля, чт
чт2200:00+8юз37840 0.0 1020116
03:00+7юз36865 0.0 1021103
06:00+7юз358510 0.0 1022112
09:00+13зюз35630 0.0 1022588
12:00+16зюз344750 0.1 10221869
15:00+16юз2347100 0.1 10221423
18:00+14ююз3465100 0.1 1022117
21:00+13ю2266100 0.1 102321
23 апреля, пт
пт2300:00+12ю1167100 0.0 102210
03:00+12ююв2269100 0.0 102220
06:00+10ююз4887100 0.1 1022272
09:00+12зюз4573100 1.7 1022346
12:00+16зюз234984 0.1 10211661
15:00+16ююз445335 1.2 10201400
18:00+15ю33606 0.5 1019304
21:00+12ю3573100 0.5 1018131
24 апреля, сб
сб2400:00+12ююз3676100 0.0 1017148
03:00+11зюз3875100 0.0 1016233
06:00+9юз3877100 0.0 1016246
09:00+14юз71056100 0.0 10151119
12:00+16юз8104799 0.6 10142206
15:00+11з7107273 1.6 10151087
18:00+11зюз49585 0.3 10151496
21:00+8ююз497158 0.3 1016179
25 апреля, вс
вс2500:00+7з6107139 0.1 1017467
03:00+5зюз410731 0.1 1018522
06:00+4зюз49795 0.0 1019552
09:00+8з55615 0.0 10191005
12:00+12з454568 0.0 10191988
15:00+13з5637100 0.0 10182334
18:00+11сз3547100 0.0 1019297
21:00+9ссз2249100 0.0 101935
26 апреля, пн
пн2600:00+8ссв2249100 0.0 101818
03:00+8всв1151100 0.0 101812
06:00+7з0058100 0.0 101710
09:00+11зюз344239 0.0 10171356
12:00+14зюз683798 0.0 10172452
15:00+12з8104941 0.1 10171976
18:00+10сз68545 0.0 10171098
21:00+7зюз225554 0.0 101918